Wainwright, AK

2:37 PM AKDT on March 30, 2017 (GMT -0800)
Wainwright

Weather History for PAWI - August, 2014

Change the Weather History Date:

Wednesday, August 27, 2014

  Actual Average (PABR) Record (PABR)
Temperature  
Mean Temperature 45 °F -  
Max Temperature 55 °F 41 °F 64 °F (2016)
Min Temperature 37 °F 32 °F 22 °F (1932)
Degree Days  
Heating Degree Days 20    
Moisture  
Dew Point 40 °F    
Average Humidity 88    
Maximum Humidity 93    
Minimum Humidity 64    
Precipitation  
Precipitation 0.00 in - - ()
Sea Level Pressure  
Sea Level Pressure 29.54 in    
Wind  
Wind Speed 9 mph (SSW)    
Max Wind Speed 20 mph    
Max Gust Speed 26 mph    
Visibility 8 miles    
Events Rain    
Averages and records for this station are not official NWS values.
T = Trace of Precipitation, MM = Missing Value Source: NWS Daily Summary

Daily Weather History Graph

Daily Weather History Graph

Search for Another Location

Airport or City:

Trip Planner

Search our weather history database for the weather conditions in past years. The results will help you decide how hot, cold, wet, or windy it might be!

Date:

Astronomy

Aug. 27, 2014 Rise Set
Actual Time 6:29 AM AKDT 10:49 PM AKDT
Civil Twilight 5:01 AM AKDT 12:15 AM AKDT
Nautical Twilight Sun does not rise Sun does not rise
Astronomical Twilight Sun does not rise Sun does not rise
Moon 10:19 AM AKDT (8/27) 9:52 PM AKDT (8/27)
Length of Visible Light 19h 14m
Length of Day
16h 19m
Waxing Crescent, 5% of the Moon is Illuminated
Aug 27
Waxing Crescent
Sep 2
First Quarter
Sep 8
Full
Sep 15
Last Quarter
Sep 23
New

Hourly Weather History & Observations

Time (AKDT) Temp. Windchill Dew Point Humidity Pressure Visibility Wind Dir Wind Speed Gust Speed Precip Events Conditions
12:12 AM 37.4 °F 33.8 °F 33.8 °F 87% 29.69 in 10.0 mi WNW 4.6 mph - N/A   Scattered Clouds
12:34 AM 37.4 °F 34.9 °F 33.8 °F 87% 29.69 in 10.0 mi West 3.5 mph - N/A   Mostly Cloudy
1:53 AM 37.9 °F 34.4 °F 35.1 °F 89% 29.68 in 10.0 mi SW 4.6 mph - N/A   Overcast
2:53 AM 37.9 °F 35.5 °F 36.0 °F 93% 29.68 in 10.0 mi SSW 3.5 mph - N/A   Overcast
3:53 AM 37.9 °F 32.7 °F 36.0 °F 93% 29.67 in 4.0 mi SSW 6.9 mph - N/A   Overcast
4:53 AM 39.0 °F 34.0 °F 37.0 °F 93% 29.65 in 4.0 mi SSW 6.9 mph - N/A   Overcast
5:53 AM 39.0 °F 34.0 °F 37.0 °F 93% 29.65 in 5.0 mi SW 6.9 mph - N/A   Overcast
6:11 AM 39.2 °F 33.6 °F 35.6 °F 87% 29.63 in 10.0 mi SSW 8.1 mph - N/A   Overcast
6:22 AM 39.2 °F 34.2 °F 37.4 °F 93% 29.63 in 10.0 mi SSW 6.9 mph - N/A   Overcast
7:53 AM 37.9 °F 31.5 °F 36.0 °F 93% 29.61 in 8.0 mi South 9.2 mph - N/A   Overcast
8:53 AM 39.0 °F 32.8 °F 37.0 °F 93% 29.60 in 2.5 mi South 9.2 mph - N/A   Overcast
9:22 AM 39.2 °F 32.5 °F 37.4 °F 93% 29.59 in 3.0 mi South 10.4 mph - N/A   Overcast
9:53 AM 39.9 °F 34.5 °F 37.9 °F 93% 29.58 in 10.0 mi SSE 8.1 mph - N/A   Overcast
11:27 AM 41.0 °F 34.3 °F 37.4 °F 87% 29.56 in 10.0 mi SE 11.5 mph - N/A   Overcast
11:53 AM 42.1 °F 35.2 °F 37.9 °F 85% 29.56 in 10.0 mi SSE 12.7 mph - N/A   Overcast
12:07 PM 42.8 °F 36.6 °F 39.2 °F 87% 29.55 in 10.0 mi SE 11.5 mph - N/A   Overcast
12:17 PM 42.8 °F 35.8 °F 39.2 °F 87% 29.54 in 10.0 mi SE 13.8 mph - N/A   Mostly Cloudy
12:53 PM 46.0 °F 41.0 °F 42.1 °F 86% 29.54 in 10.0 mi SSE 10.4 mph - N/A   Mostly Cloudy
1:53 PM 50.0 °F - 44.1 °F 80% 29.52 in 10.0 mi SSE 12.7 mph - N/A   Overcast
2:53 PM 52.0 °F - 43.0 °F 71% 29.49 in 10.0 mi South 11.5 mph - N/A   Overcast
3:53 PM 53.1 °F - 41.0 °F 64% 29.48 in 10.0 mi SW 11.5 mph - N/A   Overcast
7:53 PM 51.1 °F - 43.0 °F 74% 29.43 in 10.0 mi SW 16.1 mph - N/A   Overcast
8:53 PM 48.9 °F - 43.0 °F 80% 29.42 in 10.0 mi SSW 16.1 mph - 0.00 in Rain Light Rain
9:14 PM 50.0 °F - 46.4 °F 87% 29.41 in 7.0 mi SSW 17.3 mph - 0.00 in Rain Light Rain
9:53 PM 48.9 °F - 46.0 °F 90% 29.41 in 3.0 mi SSW 17.3 mph 24.2 mph 0.00 in Rain Light Rain
10:09 PM 48.2 °F - 46.4 °F 93% 29.40 in 2.5 mi SSW 19.6 mph 26.5 mph 0.00 in Rain Light Rain
10:26 PM 48.2 °F - 46.4 °F 93% 29.40 in 5.0 mi SSW 16.1 mph - 0.00 in Rain Light Rain
10:53 PM 48.9 °F - 46.0 °F 90% 29.40 in 6.0 mi SSW 18.4 mph - 0.00 in Rain Light Rain
11:21 PM 48.2 °F - 46.4 °F 93% 29.39 in 6.0 mi SSW 18.4 mph - 0.00 in   Overcast
11:42 PM 46.4 °F 41.5 °F 44.6 °F 93% 29.39 in 3.0 mi SW 10.4 mph 19.6 mph 0.00 in Rain Light Rain
11:53 PM 46.0 °F 41.0 °F 44.1 °F 93% 29.40 in 2.5 mi SW 10.4 mph - 0.00 in Rain Light Rain